星链-37873(STARLINK-37873)

导读

STARLINK-37873(NORAD编号69484)是美国太空探索技术公司(SpaceX)星链互联网星座的成员卫星,2026年5月2日由猎鹰9号Block 5火箭从美国卡纳维拉尔角太空军基地SLC-40工位发射,属于星链10-38批次,该批次共部署29颗星链卫星。 该卫星运行于近地轨道,主要承担空基互联网通信功能,面向偏远地区、海洋及空域用户提供高速低延迟网络接入服务,是SpaceX推进全球网络覆盖、填补数字鸿沟的组网节点之一。作为星链大规模扩展阶段的新发射卫星,目前在轨状态稳定,按设计执行通信服务任务。

Basic Information
目录编号:
69484
目录名称:
STARLINK-37873
国际标识:
2026-131G
轨道中心:
EARTH
卫星名称:
星链-37873
卫星全名:
星链-37873(STARLINK-37873)
卫星状态:
在轨 (已飞行85 天)
发射日期:
2026-06-11 UTC
国别 :
美国 (US)
星等 :
--
Orbit Information
数据来源 国际轨道数据
星历时间: 2026-09-02T08:30:53+0800
1天前
查看轨道信息
半长轴: 6843.658km
偏心率: 0.0001964
轨道倾角: 97.284°
近地点辐角 98.579°
升交点赤经 266.123°
平近点角 261.568°
近地点: 464.176km
远地点: 466.866km
周期: 93.906分钟
每日圈数: 15.334525
Detailed Information
固有亮度:
5
最大亮度:
2.5
卫星平台:
Starlink V1.0
覆盖范围:
全球
运营商:
太空探索技术公司
运营商所在国:
美国
制造商(研发单位):
太空探索技术公司
制造商所在国:
美国
使用方式:
暂无
Satellite Introduction
Starlink 计划是 SpaceX 推出的全球卫星互联网项目,通过发射低轨道卫星,为全球尤其是偏远地区提供高速、低延迟的互联网服务。自 2019 年起,Starlink 已部署数千颗卫星,旨在缩小全球数字鸿沟,推动互联网普及。该项目还为军事、航空等行业提供通信支持,带来广泛经济效益。
2D Orbit Map
3D Orbit Map
Orbit Altitude Analysis Chart
Orbit Inclination Analysis Chart
Orbit Comprehensive Analysis Chart
View Comprehensive Chart
Conjunction Data List
Event ID Objects TCA Miss Dist (km) Collision Risk Probability Collision Risk Index (CRI) Action
CDM_260904-220205-270006-948421
2026-09-04T
22:02:35+0000
1.568 km
极远距离
5.695773E-6 低风险 0.5
CDM_260903-215402-678206-948421
2026-09-03T
21:54:32+0000
2.252 km
极远距离
2.108496E-6 低风险 0.41
CDM_260904-103906-429106-948421
2026-09-04T
10:39:48+0000
2.343 km
极远距离
2.008297E-6 低风险 0.41
CDM_260830-173905-811206-948421
2026-08-30T
17:39:10+0000
2.511 km
极远距离
1.737293E-6 低风险 0.4
CDM_260905-043706-491006-948421
2026-09-05T
04:37:41+0000
2.405 km
极远距离
1.242191E-6 低风险 0.37